ORBCOMM FM04

Last updated on Sat Aug 15 2026 00:03:10 GMT+0000 (Coordinated Universal Time)

1 25159U 98007C 26226.08282588 .00000308 00000+0 15098-3 0 9991 2 25159 107.9623 288.5828 0041922 226.3672 133.3988 14.35820636484907
UTC large
Height (km)
Speed (km/s)
/
Latitude / Longitude
Inclination (degrees)
Orbital Period (minutes)
Azimuth
Elevation
Range (km)
Doppler Factor

Next 0 passes for location: London (51.5072 / 0.1276)

No passes found over London.
ORBCOMM FM04